Погода в Патрушах

Россия / Свердловская область     56°41′10″N   60°48′13″E
темп.,
°C
ветер,
м/с
пор.,
м/с
влажн.,
%
обл.,
%
осадки,
мм/ч
давл.,
гПа
погр.,
м
24 июля, сб
сб2423:00+14зсз2283100 0.0 100417
02:00+13ссз1185100 0.0 100420
05:00+13сз1184100 0.0 100412
08:00+17зсз126782 0.0 1004290
11:00+22зсз23460 0.0 10041550
14:00+25зсз243450 0.0 10032517
17:00+22з124695 0.0 1004144
20:00+19ссз115998 0.0 100515
25 июля, вс
вс2523:00+16з1163100 0.0 100614
02:00+13зсз238170 0.0 100852
05:00+12зсз269488 0.2 1009166
08:00+14ссз478328 0.3 1010690
11:00+17ссз5659100 0.3 10121429
14:00+19ссз463918 0.0 10132139
17:00+20сз663385 0.0 10132420
20:00+16сз38435 0.0 1015471
26 июля, пн
пн2623:00+11сз3106140 0.0 1017301
02:00+8зсз257694 0.0 101889
05:00+11зсз376690 0.0 1019342
08:00+11з3970100 0.1 1019500
11:00+17зсз584291 0.1 10182404
14:00+17зсз5842100 0.0 10182313
17:00+16зсз4850100 0.0 10181826
20:00+15зсз375667 0.0 1017527
27 июля, вт
вт2723:00+11зюз297589 0.0 1017219
02:00+13зюз3107352 0.1 1016377
05:00+13з3127599 0.1 1015441
08:00+16з51266100 0.0 1014728
11:00+16з51264100 0.1 10131327
14:00+14зюз51083100 0.3 1012893
17:00+18зсз585546 0.3 10111594
20:00+16зсз376237 0.2 1011628
28 июля, ср
ср2823:00+12сз2875100 0.2 1012321
02:00+8сз22867 0.0 101331
05:00+10зсз2677100 0.0 1014222
08:00+13сз375612 0.0 10141049
11:00+16сз46409 0.0 10141896
14:00+19зсз343427 0.0 10122235
17:00+21зсз45335 0.0 10112403
20:00+17з3751100 0.0 1011219